Hourly Weather Roundup
Issued by NWS Central Illinois

Home | Current Version | Previous Version | Text Only | Print | Product List | Glossary On
Versions: 1 2 3 4 5 6 7 8 9 10 11 12 13 14 15 16 17 18 19 20 21 22 23 24 25 26 27 28 29 30 31 32 33 34 35 36 37 38 39 40 41 42 43 44 45 46 47 48 49 50
000
NZUS43 KILX 280510
HWRILX

Area Weather Roundup
National Weather Service Lincoln IL
1200 AM CDT FRI APR 28 2017

NOTE:  "FAIR" indicates few or no clouds below 12,000 feet, with
       no sigificant weather and/or obstructions to visibility.


CITY           SKY/WX    TMP DP  RH WIND       PRES   REMARKS
Bloomington    PTCLDY    46  44  93 S8        29.90R
Champaign      CLOUDY    49  44  83 S7        29.91R
Danville       CLOUDY    47  43  87 CALM      29.89R
Decatur        CLOUDY    49  45  86 S7        29.92R
Effingham      CLOUDY    46  46 100 CALM      29.94R FOG
Flora          PTCLDY    50  47  90 CALM      29.92R
Galesburg      MOCLDY    45  42  88 SE3       29.85F
Jacksonville   CLOUDY    50  46  88 SE6       29.88S
Lacon          CLOUDY    42  41  98 CALM      29.87R
Lawrenceville  PTCLDY    47  46  97 CALM      29.93R
Litchfield     CLOUDY    49  46  89 E3        29.89R
$$


CITY           SKY/WX    TMP DP  RH WIND       PRES   REMARKS
Lincoln        MOCLDY    50  47  90 S5        29.90R
Macomb         CLOUDY    48  44  85 S7        29.87F
Mattoon        MOCLDY    47  44  90 CALM      29.92R
Mt Carmel AP   PTCLDY    46  45  95 CALM      29.93R
Olney-Noble AP MOCLDY    47  47 100 CALM      29.93R FOG
Paris AP       PTCLDY    46  45  98 CALM      29.93R
Peoria         CLOUDY    49  45  86 S7        29.88R
Pontiac        CLEAR     46  45  98 SE7       29.89R
Rantoul        PTCLDY    50  46  86 S5        29.91R
Robinson       PTCLDY    45  44  99 CALM      29.93R
Springfield    PTCLDY    50  47  89 S6        29.90R
Taylorville    PTCLDY    48  46  92 E3        29.91S
$$

...REGIONAL REPORTS...


CITY           SKY/WX    TMP DP  RH WIND       PRES   REMARKS
Chicago O`Hare PTCLDY    42  36  79 SW5       29.86R
Kankakee       PTCLDY    42  37  81 CALM      29.89S
Moline         CLOUDY    38  36  92 CALM      29.87R
Mount Sterling CLOUDY    49  45  86 S5        29.86S
Mount Vernon   MOCLDY    49  48  97 N3        29.90S
Pittsfield     CLOUDY    51  49  93 NE8       29.85F
Quincy         CLOUDY    52  45  77 SE6       29.83F
Rockford       CLOUDY    43  35  73 W8        29.88R
$$


CITY           SKY/WX    TMP DP  RH WIND       PRES   REMARKS
Burlington     CLOUDY    49  45  86 S3        29.84S
Cedar Rapids   PTCLDY    36  33  89 CALM      29.85R
Des Moines     CLOUDY    44  32  62 NE10      29.84R
Kirksville     CLOUDY    51  48  89 NE7       29.76F
Ottumwa        CLOUDY    43  38  82 NE9       29.84R
St Louis       CLOUDY    57  48  72 E7        29.83F
$$


CITY           SKY/WX    TMP DP  RH WIND       PRES   REMARKS
Terre Haute    MOCLDY    49  44  83 CALM      29.92R
Evansville     PTCLDY    49  45  86 CALM      29.93R
Indianapolis   PTCLDY    47  42  83 W7        29.91R
Lafayette      CLOUDY    48  43  82 CALM      29.92R
Madison        CLOUDY    39  29  67 SW6G16    29.81R WCI  35
Milwaukee      MOCLDY    44  33  65 W16G22    29.81R
$$






USA.gov is the U.S. government's official web portal to all federal, state and local government web resources and services.